Location: Ay?beleni
(36.6500°N, 30.3000°E)
Time: 03:53:43
(UTC+00:00)

Cosmos 1697 Rocket - Pass Details

Date: 16 October 2021
Orbit: 834 x 842 km, 71.0° (Epoch: 08 December)

Event Time Altitude Azimuth Distance (km) Brightness Sun altitude
Rises 15:48:28 0° 203° (SSW) 3,381 6.3 -6.3°
Reaches altitude 10° 15:50:54 10° 204° (SSW) 2,450 5.6 -6.8°
Maximum altitude 15:56:32 80° 292° (WNW) 858 2.9 -7.9°
Drops below altitude 10° 16:02:12 10° 19° (NNE) 2,462 4.9 -9.0°
Sets 16:04:39 0° 21° (NNE) 3,399 5.6 -9.5°
